SAUDISAT 1A 1 26545U 00057A 10067.37911504 +.00000150 +00000-0 +38240-4 0 04776 2 26545 064.5591 023.4489 0050438 238.2590 121.3582 14.80660151510317 UNISAT 1 26547U 00057C 10067.62891937 +.00000182 +00000-0 +40688-4 0 05172 2 26547 064.5568 005.4132 0057123 239.8228 119.7198 14.82486650510711 SAUDISAT 1B 1 26549U 00057E 10067.68117791 +.00000115 +00000-0 +34406-4 0 05659 2 26549 064.5583 040.6233 0055696 239.2323 120.3304 14.79513798509991 MOZHAYETS 1 27560U 02054B 10067.74850423 +.00000058 +00000-0 +23251-4 0 01732 2 27560 097.9222 262.0477 0044014 106.4923 254.1109 14.55078315385220 SAUDISAT 1C 1 27607U 02058C 10067.69938348 +.00000021 +00000-0 +25055-4 0 01212 2 27607 064.5586 301.7319 0037268 123.7537 236.7113 14.71507607387599 UNISAT 2 1 27608U 02058D 10067.90094333 +.00000025 +00000-0 +24257-4 0 01301 2 27608 064.5564 262.7952 0018655 111.6113 248.6929 14.74474015388429 SAUDISAT 2 1 28371U 04025F 10067.79409225 -.00000033 +00000-0 +25288-5 0 04222 2 28371 097.9864 106.1187 0025330 309.0538 050.8392 14.52956448301796 UNISAT 3 1 28373U 04025H 10067.67808470 -.00000051 +00000-0 -26362-5 0 06043 2 28373 098.0349 074.9416 0071613 018.7083 341.6698 14.43368404300292 SSETI-EXPRESS 1 28894U 05043E 10067.73302137 +.00000062 +00000-0 +22577-4 0 07109 2 28894 098.0249 314.9808 0016555 241.4123 118.5406 14.59711613232445 SAUDISAT 3 1 31118U 07012B 10067.75385054 -.00000025 +00000-0 +40409-5 0 01122 2 31118 097.9787 140.2954 0016668 112.5759 247.7209 14.68038422154992